• în Republica Moldova
  • Lista ţărilor
  • Pe 7 zile
  • Temperatura apei
  • Hartă satelitară
  • Meteo pe hartă
  • Widget-uri
  • user-avatar
    Intrare

    Meteo pe oră la Mingachevir

    Astăzi, 28 Februarie, Marţi

    Timp Temperatura Precipitaţii Vânt Presiune Umiditate
    00:00 +5°C° 0 mm 1 m/s 757 mmHg 68%
    01:00 +4°C° 0 mm 1 m/s 757 mmHg 69%
    02:00 +4°C° 0 mm 1 m/s 757 mmHg 71%
    03:00 +4°C° 0 mm 1 m/s 757 mmHg 73%
    04:00 +4°C° 0 mm 1 m/s 757 mmHg 74%
    05:00 +4°C° 0 mm 1 m/s 757 mmHg 76%
    06:00 +4°C° 0 mm 1 m/s 757 mmHg 77%
    07:00 +6°C° 0 mm 1 m/s 757 mmHg 70%
    08:00 +8°C° 0 mm 1 m/s 757 mmHg 62%
    09:00 +10°C° 0 mm 1 m/s 758 mmHg 53%
    10:00 +11°C° 0 mm 1 m/s 758 mmHg 50%
    11:00 +13°C° 0 mm 1 m/s 758 mmHg 47%
    12:00 +14°C° 0 mm 1 m/s 757 mmHg 44%
    13:00 +15°C° 0 mm 1 m/s 757 mmHg 44%
    14:00 +15°C° 0 mm 1 m/s 757 mmHg 43%
    15:00 +16°C° 0 mm 1 m/s 757 mmHg 43%
    16:00 +14°C° 0 mm 2 m/s 757 mmHg 49%
    17:00 +12°C° 0 mm 2 m/s 758 mmHg 55%
    18:00 +10°C° 0 mm 2 m/s 758 mmHg 61%
    19:00 +9°C° 0 mm 2 m/s 758 mmHg 63%
    20:00 +9°C° 0 mm 2 m/s 759 mmHg 65%
    21:00 +8°C° 0 mm 2 m/s 759 mmHg 68%
    22:00 +8°C° 0 mm 2 m/s 759 mmHg 70%
    23:00 +7°C° 0 mm 2 m/s 760 mmHg 73%

    Mâine, 1 Martie, Miercuri

    Timp Temperatura Precipitaţii Vânt Presiune Umiditate
    00:00 +8°C° 0 mm 1 m/s 760 mmHg 75%
    01:00 +7°C° 0 mm 1 m/s 760 mmHg 79%
    02:00 +7°C° 0 mm 1 m/s 760 mmHg 82%
    03:00 +6°C° 0 mm 1 m/s 760 mmHg 85%
    04:00 +6°C° 0 mm 1 m/s 760 mmHg 87%
    05:00 +4°C° 0 mm 0 m/s 760 mmHg 88%
    06:00 +4°C° 0 mm 0 m/s 759 mmHg 90%
    07:00 +6°C° 0 mm 0 m/s 759 mmHg 82%
    08:00 +8°C° 0 mm 0 m/s 759 mmHg 73%
    09:00 +10°C° 0 mm 0 m/s 759 mmHg 65%
    10:00 +12°C° 0 mm 1 m/s 759 mmHg 61%
    11:00 +14°C° 0 mm 1 m/s 758 mmHg 56%
    12:00 +15°C° 0 mm 1 m/s 758 mmHg 52%
    13:00 +16°C° 0 mm 1 m/s 757 mmHg 50%
    14:00 +16°C° 0 mm 1 m/s 757 mmHg 49%
    15:00 +18°C° 0 mm 1 m/s 756 mmHg 48%
    16:00 +15°C° 0 mm 1 m/s 756 mmHg 54%
    17:00 +13°C° 0 mm 1 m/s 756 mmHg 61%
    18:00 +12°C° 0 mm 1 m/s 756 mmHg 67%
    19:00 +10°C° 0 mm 2 m/s 757 mmHg 68%
    20:00 +10°C° 0 mm 2 m/s 757 mmHg 69%
    21:00 +9°C° 0 mm 2 m/s 757 mmHg 70%
    22:00 +9°C° 0 mm 2 m/s 757 mmHg 72%
    23:00 +8°C° 0 mm 2 m/s 757 mmHg 74%

    Poimâine, 2 Martie, Joi

    Timp Temperatura Precipitaţii Vânt Presiune Umiditate
    00:00 +7°C° 0 mm 2 m/s 756 mmHg 76%
    01:00 +8°C° 0 mm 1 m/s 756 mmHg 80%
    02:00 +7°C° 0 mm 1 m/s 756 mmHg 83%
    03:00 +7°C° 0 mm 1 m/s 756 mmHg 86%
    04:00 +7°C° 0 mm 1 m/s 756 mmHg 87%
    05:00 +5°C° 0 mm 0 m/s 755 mmHg 88%
    06:00 +5°C° 0 mm 0 m/s 755 mmHg 89%
    07:00 +7°C° 0 mm 0 m/s 755 mmHg 81%
    08:00 +10°C° 0 mm 1 m/s 755 mmHg 73%
    09:00 +11°C° 0 mm 1 m/s 755 mmHg 66%
    10:00 +13°C° 0 mm 1 m/s 754 mmHg 62%
    11:00 +14°C° 0 mm 2 m/s 753 mmHg 58%
    12:00 +15°C° 0 mm 2 m/s 753 mmHg 53%
    13:00 +16°C° 0 mm 2 m/s 752 mmHg 52%
    14:00 +16°C° 0 mm 2 m/s 752 mmHg 51%
    15:00 +16°C° 0 mm 2 m/s 752 mmHg 50%
    16:00 +15°C° 0 mm 2 m/s 752 mmHg 55%
    17:00 +14°C° 0 mm 2 m/s 752 mmHg 60%
    18:00 +12°C° 0 mm 2 m/s 752 mmHg 65%
    19:00 +12°C° 0 mm 2 m/s 753 mmHg 65%
    20:00 +12°C° 0 mm 2 m/s 753 mmHg 66%
    21:00 +10°C° 0 mm 2 m/s 753 mmHg 66%
    22:00 +10°C° 0 mm 2 m/s 753 mmHg 69%
    23:00 +10°C° 0 mm 1 m/s 753 mmHg 71%

    3 Martie, Vineri

    Timp Temperatura Precipitaţii Vânt Presiune Umiditate
    00:00 +10°C° 0 mm 1 m/s 752 mmHg 73%
    01:00 +9°C° 0 mm 1 m/s 752 mmHg 75%
    02:00 +9°C° 0 mm 1 m/s 752 mmHg 78%
    03:00 +7°C° 0 mm 0 m/s 752 mmHg 80%
    04:00 +8°C° 0 mm 1 m/s 752 mmHg 80%
    05:00 +8°C° 0 mm 1 m/s 752 mmHg 81%
    06:00 +8°C° 0 mm 1 m/s 752 mmHg 81%
    07:00 +10°C° 0 mm 1 m/s 752 mmHg 74%
    08:00 +11°C° 0 mm 1 m/s 752 mmHg 67%
    09:00 +13°C° 0 mm 1 m/s 752 mmHg 60%
    10:00 +14°C° 0 mm 1 m/s 752 mmHg 57%
    11:00 +15°C° 0 mm 1 m/s 752 mmHg 53%
    12:00 +18°C° 0 mm 1 m/s 751 mmHg 49%
    13:00 +18°C° 0 mm 1 m/s 751 mmHg 47%
    14:00 +19°C° 0 mm 1 m/s 751 mmHg 46%
    15:00 +19°C° 0 mm 1 m/s 750 mmHg 44%
    16:00 +16°C° 0 mm 1 m/s 751 mmHg 49%
    17:00 +15°C° 0 mm 1 m/s 751 mmHg 55%
    18:00 +12°C° 0 mm 0 m/s 752 mmHg 60%
    19:00 +12°C° 0,1 mm 0 m/s 752 mmHg 61%
    20:00 +13°C° 0,1 mm 1 m/s 752 mmHg 63%
    21:00 +12°C° 0,1 mm 1 m/s 753 mmHg 64%
    22:00 +12°C° 0,1 mm 1 m/s 753 mmHg 67%
    23:00 +11°C° 0,1 mm 1 m/s 753 mmHg 69%

    4 Martie, Sâmbătă

    Timp Temperatura Precipitaţii Vânt Presiune Umiditate
    00:00 +10°C° 0,1 mm 0 m/s 753 mmHg 72%
    01:00 +10°C° 0,1 mm 0 m/s 753 mmHg 74%
    02:00 +9°C° 0,1 mm 0 m/s 753 mmHg 75%
    03:00 +9°C° 0,1 mm 0 m/s 753 mmHg 77%
    04:00 +10°C° 0,1 mm 1 m/s 753 mmHg 78%
    05:00 +10°C° 0,1 mm 1 m/s 754 mmHg 78%
    06:00 +10°C° 0,1 mm 1 m/s 754 mmHg 79%
    07:00 +11°C° 0,1 mm 1 m/s 754 mmHg 74%
    08:00 +12°C° 0,1 mm 1 m/s 755 mmHg 70%
    09:00 +13°C° 0,1 mm 1 m/s 755 mmHg 65%
    10:00 +14°C° 0,1 mm 1 m/s 755 mmHg 61%
    11:00 +15°C° 0,1 mm 1 m/s 755 mmHg 58%
    12:00 +16°C° 0,1 mm 1 m/s 755 mmHg 54%
    13:00 +16°C° 0 mm 1 m/s 755 mmHg 52%
    14:00 +18°C° 0 mm 1 m/s 754 mmHg 50%
    15:00 +18°C° 0 mm 1 m/s 754 mmHg 48%
    16:00 +16°C° 0 mm 1 m/s 755 mmHg 52%
    17:00 +15°C° 0 mm 1 m/s 755 mmHg 57%
    18:00 +14°C° 0 mm 1 m/s 756 mmHg 62%
    19:00 +13°C° 0 mm 1 m/s 756 mmHg 64%
    20:00 +13°C° 0 mm 1 m/s 757 mmHg 65%
    21:00 +12°C° 0 mm 2 m/s 757 mmHg 67%
    22:00 +12°C° 0 mm 2 m/s 758 mmHg 68%
    23:00 +10°C° 0 mm 2 m/s 758 mmHg 69%

    5 Martie, Duminică

    Timp Temperatura Precipitaţii Vânt Presiune Umiditate
    00:00 +10°C° 0 mm 2 m/s 758 mmHg 70%
    01:00 +9°C° 0 mm 2 m/s 758 mmHg 71%
    02:00 +9°C° 0 mm 2 m/s 758 mmHg 72%
    03:00 +9°C° 0 mm 1 m/s 759 mmHg 73%
    04:00 +9°C° 0 mm 1 m/s 759 mmHg 75%
    05:00 +8°C° 0 mm 1 m/s 759 mmHg 76%
    06:00 +8°C° 0 mm 1 m/s 760 mmHg 77%
    07:00 +9°C° 0 mm 1 m/s 760 mmHg 70%
    08:00 +11°C° 0 mm 1 m/s 760 mmHg 63%
    09:00 +13°C° 0 mm 1 m/s 761 mmHg 55%
    10:00 +14°C° 0 mm 1 m/s 760 mmHg 52%
    11:00 +15°C° 0 mm 2 m/s 760 mmHg 49%
    12:00 +16°C° 0 mm 2 m/s 760 mmHg 45%
    13:00 +17°C° 0 mm 2 m/s 760 mmHg 44%
    14:00 +17°C° 0 mm 2 m/s 759 mmHg 43%
    15:00 +18°C° 0 mm 2 m/s 759 mmHg 42%
    16:00 +16°C° 0 mm 2 m/s 759 mmHg 48%
    17:00 +15°C° 0 mm 2 m/s 760 mmHg 54%
    18:00 +13°C° 0 mm 2 m/s 760 mmHg 59%
    19:00 +12°C° 0 mm 3 m/s 760 mmHg 64%
    20:00 +11°C° 0 mm 3 m/s 761 mmHg 68%
    21:00 +10°C° 0 mm 3 m/s 761 mmHg 73%
    22:00 +9°C° 0 mm 3 m/s 761 mmHg 76%
    23:00 +9°C° 0 mm 3 m/s 761 mmHg 79%
    Arată mai mult